Voltar ao catálogo

COSMOS 1429

AtivoNavegaçãoLEO
NORAD 13761·PAYLOAD·🇷🇺 Russia

Lançado Jan 19, 1983 de Plesetsk Cosmodrome

Loading…

Próximas Passagens (próximas 24 horas)

TLE

AtualizadoSource: Space-Track

Época: Sep 14, 2026, 14:32 UTC

1 13761U 83002A   26257.60614987 -.00000012  00000-0  23601-4 0  9994
2 13761  74.0215 109.3577 0033037 359.1903  29.4284 12.43440606981510

Acompanhe COSMOS 1429 em tempo real com AllMySat

Download on the App Store